Regional Weather Roundup
Issued by NWS

Home | Current Version | Previous Version | Text Only | Print | Product List | Glossary Off
Versions: 1 2 3 4 5 6 7 8 9 10 11 12 13 14 15 16 17 18 19 20 21 22 23 24 25 26 27 28 29 30 31 32 33 34 35 36 37 38 39 40 41 42 43 44 45 46 47 48 49 50

000
ASUS43 KFSD 272202
RWRSD

WEATHER ROUNDUP FOR SOUTH DAKOTA
NATIONAL WEATHER SERVICE SIOUX FALLS SD
500 PM CDT SUN MAY 27 2018

NOTE: "FAIR" INDICATES FEW OR NO CLOUDS BELOW 12,000 FEET WITH NO
SIGNIFICANT WEATHER AND/OR OBSTRUCTIONS TO VISIBILITY.


SDZ001>005-009-010-012>017-272300-
NORTHWEST AND NORTH CENTRAL SOUTH DAKOTA

CITY           SKY/WX    TMP DP  RH WIND       PRES   REMARKS
BUFFALO          N/A     79  53  40 N23       29.86F
FAITH            N/A     80  61  52 N23G30    29.84F
MOBRIDGE       MOSUNNY   87  65  47 N20G32    29.75R
$$

SDZ012>016-024>037-041>051-057-063-072>074-272300-
SOUTHWEST AND SOUTH CENTRAL SOUTH DAKOTA

CITY           SKY/WX    TMP DP  RH WIND       PRES   REMARKS
RAPID CTY ARPT CLOUDY    79  58  48 N15       29.88S
PIERRE         MOSUNNY   88  68  51 NW10      29.73S
CUSTER         PTSUNNY   75  41  29 NE18G26   29.99S
ELLSWORTH AFB  PTSUNNY   79  57  45 N24       29.88S
PHILIP         PTSUNNY   83  66  56 N18G29    29.79S
PINE RIDGE     CLOUDY    82  65  56 N14       29.86F
SPEARFISH      FAIR      77  57  50 N12G18    29.97F
WINNER         FAIR      93  62  35 SW17G26   29.76S
$$

SDZ004>011-016>023-039-040-272300-
NORTHEAST SOUTH DAKOTA

CITY           SKY/WX    TMP DP  RH WIND       PRES   REMARKS
ABERDEEN       SUNNY    100  61  27 SW20G32   29.69F HX 101
WATERTOWN      SUNNY     94  56  27 S23G36    29.76F
BROOKINGS      MOSUNNY   96  62  32 SW13      29.78F HX  97
SISSETON         N/A     92  68  45 SE12      29.71F HX  96
$$

SDZ017-020-022-023-036>040-048>070-272300-
SOUTHEAST SOUTH DAKOTA

CITY           SKY/WX    TMP DP  RH WIND       PRES   REMARKS
SIOUX FALLS    CLOUDY    93  59  31 SW8       29.78F
HURON          MOSUNNY   97  52  21 S22G37    29.71F
CHAMBERLAIN    MOSUNNY   95  62  33 S18       29.73F HX  95
MITCHELL       PTSUNNY   95  56  26 S13G30    29.75S
YANKTON        MOSUNNY   97  59  28 S10       29.79F HX  96
$$

ABBREVIATIONS USED IN REMARKS
   TC - TEMPERATURE IN CELSIUS
  WCI - WIND CHILL INDEX
   HX - HEAT INDEX
  VSB - VISIBILITY





USA.gov is the U.S. government's official web portal to all federal, state and local government web resources and services.